{"data":{"norad_id":56535,"epoch":"2026-09-20T04:43:32.548800Z","epoch_age_seconds":140960,"freshness":"FRESH","line1":"1 56535U 23065AJ  26263.19690450  .00000264  00000+0  19124-4 0  9995","line2":"2 56535  43.0017 208.1702 0001117 273.0511  87.0213 15.27577053186187","mean_motion":15.27577053,"eccentricity":0.0001117,"inclination_deg":43.0017,"raan_deg":208.1702,"arg_perigee_deg":273.0511,"mean_anomaly_deg":87.0213,"bstar":1.9124e-5,"rev_number":18618,"period_min":94.266930572961,"perigee_km":482.29152495941,"apogee_km":483.82431590463,"semimajor_km":6861.194920432,"source":"CELESTRAK","updated_at":"2026-09-21T09:00:33.475698Z"}}